sat.trackr.live / text

‹ back to catalog

ONEWEB-0250

NORAD 48968 · 2021-060B

PAYLOAD ACTIVE UNKNOWN

§ Identity

Operator
Country
UK
Launch date
2021-07-01
Launch site
VOSTO
Launch vehicle
Mass (kg)
RCS (m²)

Purposes: comms

External: N2YO · Heavens-Above · Gunter

§ Orbital elements

Epoch: 2026-09-20T02:16:37.123968Z

Period
108.61 min
Inclination
87.9162°
Eccentricity
0.0001017
Mean motion
13.25838625 rev/d
Perigee alt
1,161.7 km
Apogee alt
1,163.3 km
Semi-major
7,540.6 km
B*
1.7197e-4
RAAN
207.3853°
Arg perigee
85.5448°
Mean anomaly
274.5804°
Rev number
25,279

§ Raw data

ONEWEB-02501 48968U 21060B   26263.09487412  .00000089  00000+0  17197-3 0  99922 48968  87.9162 207.3853 0001017  85.5448 274.5804 13.25838625252799

JSON: /api/v1/satellites/48968 · /tle

For live sub-satellite position, see the globe view (requires WebGL).

§ Visibility from observer

Set your observer location to see the next 7 days of passes ≥ 10°. The values pass through the URL so the page stays shareable.

No JS? Fill the form by hand. The geolocation button needs JavaScript.